Regional Weather Roundup
Issued by NWS

Home | Current Version | Previous Version | Text Only | Print | Product List | Glossary Off
Versions: 1 2 3 4 5 6 7 8 9 10 11 12 13 14 15 16 17 18 19 20 21 22 23 24 25 26 27 28 29 30 31 32 33 34 35 36 37 38 39 40 41 42 43 44 45 46 47 48 49 50

000
ASUS43 KDTX 241901
RWRMI
MICHIGAN HOURLY REGIONAL WEATHER ROUNDUP
NATIONAL WEATHER SERVICE DETROIT/PONTIAC MI
300 PM EDT SAT JUN 24 2017

NOTE: "FAIR" INDICATES FEW OR NO CLOUDS BELOW 12,000 FEET WITH NO
SIGNIFICANT WEATHER AND/OR OBSTRUCTION TO VISIBILITY.

MIZ047>049-052>055-059>063-066>070-074>076-081>083-242000-
SOUTHEAST LOWER MICHIGAN

CITY           SKY/WX    TMP DP  RH WIND       PRES   REMARKS
ADRIAN         PTSUNNY   75  54  47 NW15      29.92S
ALMA           CLOUDY    63  56  79 SW6       29.90R
ANN ARBOR      PTSUNNY   72  54  53 SW10G25   29.89S
BAD AXE        PTSUNNY   68  53  57 W17G23    29.86R
CARO           MOSUNNY   74  57  56 W13       29.85R
DETROIT CITY   PTSUNNY   76  51  41 W13G22    29.86F
DETROIT        PTSUNNY   77  53  43 W22       29.89S
FLINT          PTSUNNY   71  51  49 W13G25    29.87S
GROSSE ILE     CLOUDY    75  52  43 W13G21    29.88S
HILLSDALE      PTSUNNY   73  52  46 W13G24    29.93F
HOWELL         MOSUNNY   74  48  39 W16G26    29.88S

CITY           SKY/WX    TMP DP  RH WIND       PRES   REMARKS
JACKSON        MOSUNNY   75  54  47 W10G23    29.91S
LAMBERTVILLE   PTSUNNY   76  54  46 W10       29.90F
LANSING        SUNNY     76  51  41 W21G31    29.90R
LAPEER         PTSUNNY   76  51  42 W14G20    29.87R
MASON          MOSUNNY   74  52  46 W15G25    29.91R
MONROE         MOSUNNY   78  55  45 W13G24    29.88F
MT. CLEMENS    MOSUNNY   77  51  40 W16G24    29.84F
PONTIAC        MOSUNNY   75  52  44 W12G18    29.86F
PORT HOPE        N/A     72  53  51 W10G24    29.82R
PORT HURON     SUNNY     75  46  35 W8G17     29.85S
TRI CITIES     LGT RAIN  67  57  70 W15       29.87R
MIDLAND        CLOUDY    65  51  60 SW10      29.87R
TROY           MOSUNNY   78  45  30 W15G24    29.89S
SAGINAW HB     LGT RAIN  66  55  68 NW8       29.85S
$$
MIZ043>046-050>051-056>058-064>065-071>073-077>080-242000-
SOUTHWEST LOWER MICHIGAN

CITY           SKY/WX    TMP DP  RH WIND       PRES   REMARKS
BATTLE CREEK   PTSUNNY   72  54  53 W20G26    29.95S
BENTON HARBOR  SUNNY     71  54  54 W10       29.98S
BIG RAPIDS     PTSUNNY   70  52  53 W20G28    29.88R
COLDWATER      MOSUNNY   73  51  45 W16G26    29.95S
FREMONT        PTSUNNY   68  53  58 W16G26    29.92R
HOLLAND        MOSUNNY   70  56  61 W13       29.97S
GRAND RAPIDS   PTSUNNY   68  56  65 W21G30    29.93R
IONIA          FAIR      73  53  51 SW25G32   29.90R
KALAMAZOO      MOSUNNY   72  51  47 W16G22    29.96F
LUDINGTON      PTSUNNY   66  57  73 W13       29.91S
MARSHALL       MOSUNNY   75  52  44 W22G28    29.93S
MOUNT PLEASANT HVY RAIN  57  51  79 SW12G18   29.89R
MUSKEGON       MOSUNNY   70  56  61 W13G22    29.94S
SOUTH HAVEN    MOSUNNY   70  58  67 W9        29.98S
$$
MIZ016>042-242000-
NORTHERN LOWER MICHIGAN

CITY           SKY/WX    TMP DP  RH WIND       PRES   REMARKS
ALPENA         PTSUNNY   68  54  60 N13       29.83R
BEAVER ISLAND  MOSUNNY   70  54  56 W10       29.85S
BELLAIRE       MOSUNNY   68  51  53 NW6       29.86S
CADILLAC       PTSUNNY   70  53  54 W15       29.87R
CHARLEVOIX     MOSUNNY   66  53  61 W12       29.89S
FRANKFORT      MOSUNNY   66  54  66 W12       29.89S
GAYLORD        MOSUNNY   69  47  45 W8G18     29.85S
GRAYLING       PTSUNNY   71  50  47 W10G20    29.86R
HARBOR SPRINGS SUNNY     63  57  81 SW10G16   29.85S
HOUGHTON LAKE  CLOUDY    62  54  74 SW7       29.87R
MANISTEE       PTSUNNY   67  57  70 W14G22    29.90R
OSCODA         PTSUNNY   67  53  61 CALM      29.82R
PELLSTON       MOSUNNY   70  46  42 VRB7      29.84S
ROGERS CITY    MOSUNNY   66  53  62 N9        29.84S
TRAVERSE CITY  CLOUDY    69  52  54 NW10      29.84S
$$
MIZ007>008-015-242000-
EASTERN UPPER MICHIGAN

CITY           SKY/WX    TMP DP  RH WIND       PRES   REMARKS
KINROSS        SUNNY     68  45  43 VRB5      29.83S
MACKINAC ISLAN PTSUNNY   65  56  72 SW10      29.83F
NEWBERRY       MOSUNNY   69  46  45 NW7       29.84R
S. S. MARIE    SUNNY     69  49  48 NW10      29.82R
MUNISING         N/A     57  52  83 NE7       29.87R
$$
MIZ004>006-011>014-085-242000-
CENTRAL UPPER MICHIGAN

CITY           SKY/WX    TMP DP  RH WIND       PRES   REMARKS
MANISTIQUE     CLOUDY    62  56  79 SW9       29.84R
ESCANABA       TSTM      57  56  96 W6        29.87S
MENOMINEE      RAIN      57  56  96 CALM      29.90R
SAWYER-GWINN   HVY RAIN  54  52  94 NE7       29.89R
$$
MIZ001>003-009>011-084-242000-
WESTERN UPPER MICHIGAN

CITY           SKY/WX    TMP DP  RH WIND       PRES   REMARKS
IRON MOUNTAIN  LGT RAIN  59  53  80 NW10      29.88R
HOUGHTON       CLOUDY    55  51  86 W13       29.88S
COPPER HARBOR    N/A     53  49  86 N6        29.87S
IRONWOOD       LGT RAIN  55  51  86 W10       29.93R
$$

ABBREVIATIONS USED IN REMARKS
   TC - TEMPERATURE IN CELSIUS
  WCI - WIND CHILL INDEX
   HX - HEAT INDEX
  VSB - VISIBILITY




USA.gov is the U.S. government's official web portal to all federal, state and local government web resources and services.